EDT,Max TemperatureF,Mean TemperatureF,Min TemperatureF,Max Dew PointF,MeanDew PointF,Min DewpointF,Max Humidity, Mean Humidity, Min Humidity, Max Sea Level PressureIn, Mean Sea Level PressureIn, Min Sea Level PressureIn, Max VisibilityMiles, Mean VisibilityMiles, Min VisibilityMiles, Max Wind SpeedMPH, Mean Wind SpeedMPH, Max Gust SpeedMPH,PrecipitationIn, CloudCover, Events, WindDirDegrees
2012-8-1,80,73,66,68,66,64,100,86,65,29.95,29.90,29.85,10,10,1,16,9,38,0.12,4,Rain,240
2012-8-2,82,74,66,72,69,66,100,85,65,29.94,29.88,29.84,10,8,0,17,5,21,0.02,3,Fog-Rain-Thunderstorm,236
2012-8-3,86,78,70,75,73,70,100,89,62,30.12,30.02,29.94,10,7,0,18,12,25,0.00,5,Fog,240
2012-8-4,84,77,70,75,73,70,100,89,66,30.25,30.21,30.12,10,7,0,14,10,,0.00,5,Fog-Rain,239
2012-8-5,84,78,71,75,74,71,100,88,70,30.25,30.14,29.98,10,9,0,29,13,40,0.00,7,Fog-Thunderstorm,213
2012-8-6,84,75,66,73,67,59,100,76,42,29.98,29.96,29.91,10,9,2,24,12,32,0.01,4,Rain-Thunderstorm,260
2012-8-7,78,69,60,66,62,57,94,75,50,30.02,30.00,29.97,10,10,10,13,6,16,0.00,1,,180
2012-8-8,82,73,64,70,66,63,100,81,54,30.02,30.00,29.98,10,10,7,13,5,16,0.00,0,,213
2012-8-9,80,71,62,72,69,63,100,89,74,29.99,29.96,29.93,10,8,0,15,4,17,0.00,4,Fog,192
2012-8-10,80,76,71,73,73,69,100,93,79,29.97,29.92,29.83,10,7,0,30,11,38,0.39,7,Fog-Rain-Thunderstorm,177
2012-8-11,80,76,72,75,73,72,100,91,79,29.99,29.91,29.84,10,8,2,20,13,29,0.04,6,Rain-Thunderstorm,218
2012-8-12,80,76,71,73,72,70,100,91,74,29.97,29.94,29.91,10,8,1,18,12,23,0.04,6,Rain,214
2012-8-13,82,75,68,72,67,61,100,78,51,29.96,29.94,29.92,10,8,0,15,8,20,0.00,1,Fog,238
2012-8-14,82,73,64,70,65,63,100,75,49,29.97,29.95,29.93,10,10,6,15,7,18,0.00,0,,257
2012-8-15,80,73,66,72,68,66,100,87,73,29.96,29.90,29.86,10,8,0,13,4,,0.01,2,Rain-Thunderstorm,182
2012-8-16,77,72,66,70,67,64,100,85,64,29.86,29.83,29.81,10,10,5,13,4,,0.00,3,Rain-Thunderstorm,275
2012-8-17,82,72,62,72,65,59,95,75,45,29.87,29.84,29.82,10,10,5,17,8,24,0.00,0,,251
2012-8-18,73,68,60,72,65,59,100,93,83,29.90,29.86,29.82,10,8,1,13,6,16,0.24,6,Rain-Thunderstorm,5
2012-8-19,73,65,57,65,61,57,100,85,63,29.96,29.93,29.88,10,10,8,14,4,,0.00,3,,20
2012-8-20,75,67,59,64,61,55,100,83,50,29.94,29.91,29.87,10,10,9,10,2,,0.00,0,,208
2012-8-21,78,69,60,66,62,59,94,78,57,30.09,30.00,29.92,10,10,5,13,5,,0.00,1,,255
2012-8-22,80,70,59,67,59,52,100,72,39,30.15,30.13,30.08,10,10,9,9,4,,0.00,0,,354
2012-8-23,80,70,59,67,63,57,100,78,54,30.17,30.14,30.12,10,10,10,14,4,17,0.00,0,,244
2012-8-24,82,74,66,70,66,63,100,81,54,30.23,30.16,30.11,10,9,0,10,6,,0.00,0,Fog-Rain,33
2012-8-25,78,70,62,66,62,57,100,79,45,30.33,30.29,30.23,10,8,0,13,5,17,0.00,0,Fog-Thunderstorm,79
2012-8-26,75,67,59,64,61,55,100,80,45,30.35,30.30,30.26,10,10,4,13,5,20,0.00,0,,96
2012-8-27,78,64,51,72,63,50,100,85,63,30.26,30.14,29.98,10,9,0,16,5,20,0.01,3,Fog,212
2012-8-28,82,75,68,73,70,64,100,85,61,29.97,29.82,29.72,10,10,4,20,12,26,0.01,5,Rain-Thunderstorm,261
2012-8-29,71,62,53,63,54,48,94,68,40,29.99,29.94,29.85,10,10,10,14,6,17,0.00,1,,13
2012-8-30,77,65,53,64,55,50,94,68,41,30.06,30.01,29.99,10,10,10,21,7,28,0.00,0,,259
2012-8-31,80,73,66,71,63,57,96,71,54,30.00,29.93,29.84,10,10,5,23,14,31,0.00,0,,249